Radiation Dose at Monitoring Post of Fukushima Daini Nuclear Power Station
Date,Time,MP-1(microSv/h),MP-2(microSv/h),MP-3(microSv/h),MP-4(microSv/h),MP-5(microSv/h),MP-6(microSv/h),MP-7(microSv/h),Wind Direction,Wind Velocity(m/s),Rain
2024/05/25,00:00,0.147,0.130,0.210,0.198,0.207,0.116,0.075,northwest,11.8,No
2024/05/25,00:10,0.147,0.130,0.211,0.199,0.206,0.115,0.075,northwest,9.2,No
2024/05/25,00:20,0.147,0.130,0.211,0.197,0.207,0.116,0.075,northwest,9.5,No
2024/05/25,00:30,0.146,0.130,0.211,0.199,0.205,0.115,0.075,north-northwest,9.2,No
2024/05/25,00:40,0.147,0.130,0.211,0.197,0.207,0.116,0.075,northwest,8.1,No
2024/05/25,00:50,0.146,0.130,0.212,0.198,0.207,0.115,0.075,northwest,8.3,No
2024/05/25,01:00,0.148,0.131,0.211,0.199,0.207,0.116,0.074,northwest,7.0,No
2024/05/25,01:10,0.147,0.130,0.211,0.197,0.207,0.115,0.074,northwest,6.5,No
2024/05/25,01:20,0.148,0.130,0.211,0.198,0.206,0.116,0.074,northwest,8.3,No
2024/05/25,01:30,0.147,0.129,0.211,0.197,0.206,0.115,0.075,northwest,8.9,No
2024/05/25,01:40,0.148,0.131,0.212,0.197,0.207,0.116,0.074,northwest,7.6,No
2024/05/25,01:50,0.147,0.130,0.210,0.199,0.207,0.116,0.075,northwest,9.8,No
2024/05/25,02:00,0.148,0.130,0.211,0.199,0.206,0.116,0.075,northwest,10.1,No
2024/05/25,02:10,0.147,0.130,0.210,0.197,0.209,0.115,0.075,north-northwest,7.5,No
2024/05/25,02:20,0.148,0.130,0.210,0.199,0.206,0.116,0.075,north-northwest,9.2,No
2024/05/25,02:30,0.147,0.130,0.211,0.198,0.208,0.116,0.075,northwest,7.6,No
2024/05/25,02:40,0.147,0.130,0.211,0.199,0.206,0.116,0.075,northwest,9.0,No
2024/05/25,02:50,0.148,0.131,0.211,0.197,0.207,0.115,0.075,north-northwest,8.6,No
2024/05/25,03:00,0.147,0.129,0.209,0.197,0.206,0.116,0.075,north-northwest,8.8,No
2024/05/25,03:10,0.147,0.129,0.212,0.199,0.208,0.116,0.074,north-northwest,8.4,No
2024/05/25,03:20,0.148,0.130,0.211,0.197,0.205,0.116,0.074,north-northwest,10.4,No
2024/05/25,03:30,0.148,0.130,0.211,0.199,0.208,0.117,0.075,north-northwest,11.2,No
2024/05/25,03:40,0.147,0.130,0.212,0.197,0.206,0.116,0.074,north-northwest,9.2,No
2024/05/25,03:50,0.147,0.130,0.212,0.199,0.207,0.115,0.075,northwest,9.2,No
2024/05/25,04:00,0.146,0.129,0.212,0.198,0.208,0.116,0.075,northwest,11.1,No
2024/05/25,04:10,0.147,0.131,0.212,0.197,0.207,0.116,0.075,northwest,7.5,No
2024/05/25,04:20,0.147,0.130,0.211,0.198,0.208,0.116,0.075,northwest,6.6,No
2024/05/25,04:30,0.147,0.130,0.211,0.197,0.206,0.116,0.074,northwest,7.2,No
2024/05/25,04:40,0.148,0.130,0.212,0.198,0.208,0.115,0.075,northwest,8.6,No
2024/05/25,04:50,0.146,0.130,0.212,0.198,0.207,0.116,0.075,northwest,8.1,No
2024/05/25,05:00,0.148,0.130,0.211,0.197,0.207,0.116,0.075,northwest,7.9,No
2024/05/25,05:10,0.147,0.130,0.211,0.199,0.206,0.116,0.075,northwest,7.0,No
2024/05/25,05:20,0.147,0.130,0.211,0.197,0.207,0.115,0.075,northwest,6.1,No
2024/05/25,05:30,0.147,0.130,0.212,0.198,0.207,0.117,0.075,northwest,6.8,No
2024/05/25,05:40,0.147,0.130,0.210,0.198,0.206,0.115,0.074,northwest,6.1,No
2024/05/25,05:50,0.147,0.130,0.212,0.198,0.206,0.116,0.075,northwest,6.3,No
2024/05/25,06:00,0.146,0.130,0.212,0.198,0.206,0.115,0.074,northwest,5.5,No
2024/05/25,06:10,0.148,0.129,0.211,0.197,0.206,0.116,0.074,northwest,4.9,No
2024/05/25,06:20,0.146,0.129,0.211,0.198,0.206,0.116,0.075,northwest,4.9,No
2024/05/25,06:30,0.148,0.131,0.210,0.197,0.205,0.116,0.074,northwest,2.9,No
2024/05/25,06:40,0.147,0.129,0.212,0.198,0.207,0.116,0.075,northwest,2.0,No
2024/05/25,06:50,0.146,0.130,0.210,0.198,0.205,0.115,0.074,northwest,1.1,No
2024/05/25,07:00,0.147,0.130,0.211,0.198,0.207,0.117,0.074,northwest,3.0,No
2024/05/25,07:10,0.146,0.129,0.210,0.197,0.205,0.116,0.075,west-northwest,4.4,No
2024/05/25,07:20,0.146,0.130,0.209,0.197,0.207,0.115,0.074,west-northwest,6.2,No
2024/05/25,07:30,0.147,0.130,0.211,0.198,0.205,0.116,0.074,northwest,3.5,No
2024/05/25,07:40,0.147,0.129,0.210,0.197,0.205,0.115,0.074,northwest,5.6,No
2024/05/25,07:50,0.145,0.130,0.207,0.197,0.207,0.115,0.074,northwest,5.6,No
2024/05/25,08:00,0.149,0.130,0.209,0.198,0.205,0.115,0.074,northwest,6.2,No
2024/05/25,08:10,0.147,0.129,0.212,0.196,0.208,0.116,0.074,west-northwest,6.1,No
2024/05/25,08:20,0.146,0.130,0.209,0.198,0.206,0.116,0.075,northwest,3.3,No
2024/05/25,08:30,0.148,0.130,0.208,0.199,0.204,0.115,0.074,west-northwest,5.7,No
2024/05/25,08:40,0.147,0.129,0.211,0.196,0.207,0.116,0.075,west-northwest,5.5,No
2024/05/25,08:50,0.145,0.131,0.212,0.196,0.205,0.116,0.075,northwest,4.1,No
2024/05/25,09:00,0.149,0.131,0.211,0.197,0.203,0.115,0.075,northwest,5.9,No
2024/05/25,09:10,0.148,0.129,0.210,0.198,0.207,0.116,0.074,northwest,3.8,No
2024/05/25,09:20,0.146,0.128,0.208,0.197,0.206,0.116,0.074,north-northwest,6.6,No
2024/05/25,09:30,0.146,0.130,0.208,0.195,0.205,0.116,0.075,northwest,6.5,No
2024/05/25,09:40,0.148,0.129,0.208,0.195,0.204,0.115,0.075,northwest,4.7,No
2024/05/25,09:50,0.148,0.128,0.209,0.198,0.207,0.115,0.075,northwest,6.2,No
2024/05/25,10:00,0.146,0.129,0.211,0.198,0.207,0.117,0.074,west-northwest,7.0,No
2024/05/25,10:10,0.146,0.130,0.212,0.197,0.205,0.115,0.074,northwest,4.2,No
2024/05/25,10:20,0.147,0.131,0.213,0.197,0.204,0.115,0.074,northwest,4.3,No
2024/05/25,10:30,0.148,0.129,0.210,0.196,0.207,0.116,0.075,west-northwest,4.8,No
2024/05/25,10:40,0.147,0.129,0.210,0.197,0.207,0.116,0.076,west-northwest,6.2,No
2024/05/25,10:50,0.146,0.129,0.210,0.196,0.207,0.115,0.075,west-northwest,3.7,No
2024/05/25,11:00,0.145,0.130,0.209,0.196,0.204,0.115,0.074,north-northwest,3.8,No
2024/05/25,11:10,0.145,0.130,0.210,0.196,0.204,0.115,0.075,northwest,6.8,No
2024/05/25,11:20,0.147,0.130,0.210,0.196,0.204,0.115,0.075,north,2.5,No
2024/05/25,11:30,0.148,0.130,0.211,0.197,0.204,0.116,0.074,northeast,3.9,No
2024/05/25,11:40,0.147,0.129,0.209,0.197,0.204,0.115,0.074,east,4.4,No
2024/05/25,11:50,0.146,0.129,0.209,0.196,0.206,0.116,0.075,east,4.8,No
2024/05/25,12:00,0.146,0.128,0.210,0.198,0.207,0.116,0.074,east,4.0,No
2024/05/25,12:10,0.146,0.131,0.209,0.200,0.207,0.116,0.075,east,3.3,No
2024/05/25,12:20,0.145,0.130,0.210,0.198,0.206,0.116,0.075,east,3.3,No
2024/05/25,12:30,0.146,0.130,0.209,0.199,0.205,0.116,0.074,east-southeast,3.7,No
2024/05/25,12:40,0.146,0.129,0.210,0.198,0.205,0.116,0.075,east-southeast,3.5,No
2024/05/25,12:50,0.146,0.129,0.210,0.197,0.204,0.116,0.075,east-southeast,2.9,No
2024/05/25,13:00,0.145,0.129,0.210,0.196,0.205,0.117,0.075,southeast,2.4,No
2024/05/25,13:10,0.145,0.130,0.209,0.197,0.205,0.117,0.074,southeast,2.1,No
2024/05/25,13:20,0.145,0.129,0.210,0.196,0.205,0.115,0.074,south-southeast,1.9,No
2024/05/25,13:30,0.146,0.131,0.209,0.197,0.204,0.116,0.074,southeast,2.8,No
2024/05/25,13:40,0.147,0.131,0.210,0.197,0.205,0.116,0.074,east-southeast,2.6,No
2024/05/25,13:50,0.146,0.129,0.213,0.198,0.205,0.116,0.074,east,2.5,No
2024/05/25,14:00,0.149,0.130,0.214,0.200,0.208,0.116,0.075,east-southeast,1.6,No
2024/05/25,14:10,0.148,0.131,0.212,0.199,0.209,0.116,0.075,south-southeast,1.9,No
2024/05/25,14:20,0.147,0.131,0.212,0.199,0.208,0.115,0.074,southeast,3.4,No
2024/05/25,14:30,0.147,0.130,0.211,0.198,0.206,0.116,0.074,west,2.9,No
2024/05/25,14:40,0.146,0.130,0.212,0.198,0.205,0.115,0.074,west-northwest,5.4,No
2024/05/25,14:50,0.145,0.129,0.211,0.197,0.206,0.116,0.074,west-northwest,4.9,No
2024/05/25,15:00,0.147,0.130,0.211,0.197,0.206,0.116,0.075,west-northwest,7.8,No
2024/05/25,15:10,0.147,0.129,0.211,0.197,0.207,0.116,0.074,west-northwest,7.0,No
2024/05/25,15:20,0.147,0.128,0.212,0.197,0.206,0.116,0.074,northwest,7.6,No
2024/05/25,15:30,0.145,0.129,0.211,0.197,0.206,0.116,0.075,northwest,5.9,No
2024/05/25,15:40,0.148,0.129,0.210,0.196,0.204,0.116,0.075,west-northwest,5.8,No
2024/05/25,15:50,0.147,0.131,0.210,0.200,0.206,0.116,0.075,west-northwest,5.9,No
2024/05/25,16:00,0.147,0.130,0.211,0.199,0.205,0.116,0.074,northwest,5.8,No
2024/05/25,16:10,0.147,0.130,0.213,0.197,0.204,0.116,0.075,northwest,6.4,No
2024/05/25,16:20,0.147,0.130,0.213,0.199,0.205,0.117,0.075,northwest,6.1,No
2024/05/25,16:30,0.147,0.132,0.211,0.201,0.205,0.116,0.074,northwest,5.2,No
2024/05/25,16:40,0.148,0.130,0.214,0.199,0.205,0.116,0.074,north-northwest,3.5,No
2024/05/25,16:50,0.147,0.130,0.213,0.199,0.205,0.115,0.075,north-northeast,6.2,No
2024/05/25,17:00,0.146,0.130,0.211,0.200,0.204,0.117,0.075,north-northeast,9.3,No
2024/05/25,17:10,0.148,0.129,0.213,0.198,0.208,0.117,0.075,north,8.7,No
2024/05/25,17:20,0.147,0.131,0.212,0.200,0.209,0.115,0.074,north,7.6,No
2024/05/25,17:30,0.148,0.130,0.214,0.200,0.205,0.117,0.074,north,8.6,No
2024/05/25,17:40,0.149,0.130,0.212,0.198,0.208,0.116,0.074,north-northeast,8.2,No
2024/05/25,17:50,0.147,0.131,0.213,0.199,0.207,0.117,0.076,north-northeast,8.3,No
2024/05/25,18:00,0.148,0.131,0.213,0.199,0.206,0.117,0.075,north,8.1,No
2024/05/25,18:10,0.148,0.130,0.211,0.199,0.208,0.116,0.075,north,6.0,No
2024/05/25,18:20,0.148,0.132,0.212,0.199,0.206,0.116,0.074,north-northeast,5.8,No
2024/05/25,18:30,0.148,0.130,0.211,0.199,0.209,0.116,0.074,north-northeast,6.2,No
2024/05/25,18:40,0.146,0.130,0.213,0.200,0.207,0.117,0.074,north,5.7,No
2024/05/25,18:50,0.148,0.130,0.213,0.199,0.208,0.116,0.074,north,5.8,No
2024/05/25,19:00,0.147,0.131,0.211,0.199,0.207,0.116,0.075,north,4.8,No
2024/05/25,19:10,0.149,0.130,0.213,0.200,0.209,0.116,0.075,north-northwest,3.6,No
2024/05/25,19:20,0.148,0.131,0.212,0.200,0.206,0.117,0.075,north,3.8,No
2024/05/25,19:30,0.149,0.130,0.212,0.199,0.208,0.116,0.074,north-northwest,3.5,No
2024/05/25,19:40,0.147,0.131,0.212,0.200,0.207,0.116,0.075,north-northwest,3.8,No
2024/05/25,19:50,0.148,0.130,0.212,0.200,0.208,0.116,0.075,north-northwest,4.0,No
2024/05/25,20:00,0.147,0.130,0.214,0.200,0.207,0.116,0.075,north-northwest,3.6,No
2024/05/25,20:10,0.148,0.131,0.213,0.200,0.207,0.117,0.074,north,4.0,No
2024/05/25,20:20,0.148,0.131,0.213,0.200,0.206,0.117,0.076,north,4.8,No
2024/05/25,20:30,0.148,0.131,0.214,0.200,0.207,0.116,0.074,north,3.3,No
2024/05/25,20:40,0.148,0.131,0.213,0.199,0.208,0.116,0.075,north-northwest,2.6,No
2024/05/25,20:50,0.146,0.130,0.214,0.200,0.207,0.116,0.075,north-northwest,1.8,No
2024/05/25,21:00,0.149,0.131,0.212,0.200,0.208,0.116,0.075,north-northwest,2.0,No
2024/05/25,21:10,0.148,0.130,0.212,0.200,0.205,0.116,0.075,northwest,2.5,No
2024/05/25,21:20,0.148,0.130,0.213,0.201,0.208,0.115,0.075,northwest,2.2,No
2024/05/25,21:30,0.149,0.131,0.213,0.200,0.207,0.116,0.074,north-northwest,3.3,No
2024/05/25,21:40,0.147,0.131,0.212,0.200,0.207,0.116,0.075,north-northwest,2.5,No
2024/05/25,21:50,0.149,0.131,0.213,0.199,0.208,0.115,0.075,north-northwest,2.6,No
2024/05/25,22:00,0.148,0.132,0.212,0.200,0.208,0.117,0.075,north-northwest,2.6,No
2024/05/25,22:10,0.148,0.129,0.213,0.200,0.209,0.116,0.074,northwest,3.3,No
2024/05/25,22:20,0.148,0.130,0.213,0.200,0.207,0.117,0.076,north-northwest,3.4,No
2024/05/25,22:30,0.147,0.130,0.213,0.199,0.207,0.116,0.074,north-northwest,2.9,No
2024/05/25,22:40,0.148,0.129,0.213,0.200,0.207,0.116,0.075,north-northwest,1.7,No
2024/05/25,22:50,0.148,0.131,0.212,0.199,0.207,0.116,0.074,north-northeast,1.1,No
2024/05/25,23:00,0.148,0.130,0.213,0.200,0.208,0.118,0.075,north-northeast,0.9,No
2024/05/25,23:10,0.147,0.131,0.213,0.200,0.207,0.116,0.075,north,1.7,No
2024/05/25,23:20,0.148,0.131,0.214,0.199,0.208,0.117,0.075,north,0.8,No
2024/05/25,23:30,0.149,0.130,0.213,0.199,0.207,0.117,0.075,east,1.0,No
2024/05/25,23:40,0.148,0.131,0.211,0.200,0.207,0.115,0.075,east-northeast,0.9,No
2024/05/25,23:50,0.147,0.131,0.214,0.199,0.207,0.117,0.075,east,1.4,No
